Home   Weather   Buchs   Past weeks

Flag for Switzerland Past Weather in Buchs, St. Gallen, Switzerland — Yesterday and Last 2 Weeks

Now
60 °F

Fog.


Feels Like: 60 °F
Forecast: 52 / 78 °F
Wind: 5 mph from Southeast

Location: Vaduz

Current Time: Sep 29, 2016 at 12:21:30 AM

Latest Report: Sep 28, 2016 at 11:00 PM


Visibility: 6 mi

Pressure: 30.42 "Hg

Humidity: 77%

Dew Point: 53 °F

Location of BuchsLocation

Past Weather in Buchs — Graph

°F

Buchs Temperature Yesterday

Maximum temperature yesterday: 71 °F (at 4:00 PM)
Minimum temperature yesterday: 53 °F (at 7:00 AM)
Average temperature yesterday: 60 °F

High & Low Weather Summary for the Past Weeks

 TemperatureHumidityPressure
High80 °F (Sep 14, 3:00 PM)98% (Sep 24, 3:00 AM)30.46 "Hg (Sep 24, 3:00 AM)
Low49 °F (Sep 24, 7:00 AM)35% (Sep 15, 4:00 PM)29.78 "Hg (Sep 15, 5:00 AM)
Average60 °F78%30.10 "Hg
* Reported Sep 13 11:00 PM — Sep 28 11:00 PM, Buchs, Weather by CustomWeather, © 2016

Note: Actual official high and low records may vary slightly from our data, if they occured in-between our weather recording intervals... More about our weather records

Advertising

Buchs Weather History for the Previous 24 Hours

Scroll right to see more
 ConditionsComfort  
Time TempWeatherWind HumidityBarometerVisibility
11:00 PM
Wed, Sep 28
60 °FFog.5 mph77%30.42 "Hg6 mi
10:00 PM57 °FCool.2 mph86%30.42 "HgN/A
9:00 PM57 °FCool.2 mph92%30.42 "HgN/A
8:00 PM59 °FFog.1 mph89%30.41 "Hg6 mi
7:00 PM63 °FMild.No wind76%30.39 "HgN/A
6:00 PM67 °FMild.3 mph63%30.36 "HgN/A
5:00 PM70 °FScattered clouds.5 mph57%30.34 "Hg6 mi
4:00 PM71 °FMild.5 mph48%30.34 "HgN/A
3:00 PM70 °FMild.5 mph48%30.35 "HgN/A
2:00 PM69 °FScattered clouds.No wind56%30.37 "Hg6 mi
1:00 PM66 °FMild.1 mph57%30.40 "HgN/A
12:00 PM64 °FMild.3 mph57%30.43 "HgN/A
11:00 AM60 °FScattered clouds.5 mph64%30.46 "Hg5 mi
10:00 AM59 °FCool.3 mph69%30.46 "HgN/A
9:00 AM55 °FCool.5 mph74%30.45 "HgN/A
8:00 AM54 °FFog.5 mph78%30.45 "Hg3 mi
7:00 AM53 °FCool.5 mph81%30.44 "HgN/A
6:00 AM54 °FCool.3 mph79%30.43 "HgN/A
5:00 AM56 °FFog.5 mph76%30.42 "Hg6 mi
4:00 AM57 °FCool.5 mph74%30.40 "HgN/A
3:00 AM58 °FCool.5 mph73%30.40 "HgN/A
2:00 AM55 °FFog.3 mph84%30.40 "Hg6 mi
1:00 AM57 °FCool.2 mph81%30.39 "HgN/A
12:00 AM58 °FCool.3 mph80%30.39 "HgN/A
Weather by CustomWeather, © 2016

See weather overviewHow to use our weather pages